Date,TemperatureHighF,TemperatureAvgF,TemperatureLowF,DewpointHighF,DewpointAvgF,DewpointLowF,HumidityHigh,HumidityAvg,HumidityLow,PressureMaxIn,PressureMinIn,WindSpeedMaxMPH,WindSpeedAvgMPH,GustSpeedMaxMPH,PrecipitationSumIn
2014-1-1,23,17,13,12,8,3,82,68,54,30.39,30.21,12,1,12,0.00
2014-1-2,17,14,6,12,9,0,84,81,76,30.35,29.85,23,6,23,0.00
2014-1-3,5,-5,-18,0,-12,-24,79,74,58,30.51,29.85,15,2,17,0.00
2014-1-4,24,5,-19,6,-7,-25,79,61,35,30.54,30.30,9,1,14,0.01
2014-1-5,46,24,-3,42,14,-8,89,70,24,30.36,29.83,23,2,24,0.16
2014-1-6,58,39,14,54,32,0,90,78,52,29.83,29.32,24,4,24,0.84
2014-1-7,14,6,4,0,-7,-12,67,53,46,30.27,29.62,26,4,27,0.00
2014-1-8,18,11,5,7,0,-7,75,60,50,30.50,30.27,11,1,11,0.00
2014-1-9,26,17,8,12,8,4,84,67,52,30.66,30.47,17,1,18,0.00
2014-1-10,36,27,8,33,22,4,90,82,66,30.59,30.23,8,1,8,0.05
2014-1-11,59,50,34,55,47,31,91,87,80,30.23,29.23,24,4,25,1.17
2014-1-12,44,38,34,40,29,23,84,70,61,30.00,29.35,21,3,25,0.03
2014-1-13,48,33,23,31,24,20,89,72,49,30.09,29.96,14,1,14,0.00
2014-1-14,46,42,37,42,38,32,90,85,65,29.82,29.67,10,1,10,0.41
2014-1-15,48,37,23,36,31,20,90,77,60,29.98,29.82,16,1,16,0.01
2014-1-16,38,33,30,33,30,27,88,86,82,29.92,29.88,6,0,6,0.01
2014-1-17,39,29,18,27,23,15,90,78,57,29.97,29.89,8,1,9,0.02
2014-1-18,38,28,22,31,24,19,90,85,70,29.92,29.65,9,0,9,0.00
2014-1-19,30,26,20,21,19,16,85,74,62,29.79,29.53,17,2,17,0.00
2014-1-20,36,29,14,28,20,4,82,69,58,29.93,29.51,18,3,18,0.02
2014-1-21,14,8,3,5,-4,-9,65,58,42,30.08,29.92,15,3,18,0.00
2014-1-22,5,-1,-7,-7,-10,-15,79,64,53,30.05,29.86,15,3,16,0.00
2014-1-23,14,4,-6,2,-5,-11,80,65,41,30.25,30.05,14,1,23,0.00
2014-1-24,14,7,1,1,-4,-9,73,59,47,30.35,29.99,20,3,20,0.00
2014-1-25,21,18,14,16,9,-3,85,67,44,29.98,29.37,17,3,20,0.00
2014-1-26,21,13,5,15,0,-10,80,55,43,29.84,29.41,21,2,25,0.00
2014-1-27,37,24,11,25,9,-6,76,55,32,30.05,29.53,29,4,29,0.00
2014-1-28,13,8,4,-1,-8,-16,71,48,36,30.33,30.05,19,2,19,0.00
2014-1-29,20,9,-10,0,-7,-15,79,51,27,30.28,30.02,11,1,11,0.01
2014-1-30,27,15,-5,6,-1,-10,80,51,30,30.46,30.12,15,2,15,0.00
2014-1-31,36,28,20,22,11,-2,76,50,30,30.22,30.03,18,2,18,0.01
2014-2-1,43,31,15,32,21,11,85,68,45,30.36,29.99,18,2,18,0.04
2014-2-2,45,37,32,34,31,26,89,78,59,30.13,29.86,19,2,20,0.13
2014-2-3,32,29,24,27,23,16,85,78,70,30.31,30.12,6,1,6,0.00
2014-2-4,30,24,16,19,15,10,82,69,51,30.49,30.28,6,1,7,0.01
2014-2-5,28,25,18,23,20,13,87,82,68,30.29,29.66,15,3,18,0.00
2014-2-6,22,11,-8,13,3,-14,82,72,42,30.32,30.02,12,1,12,0.11
2014-2-7,26,8,-10,13,-1,-15,86,67,45,30.32,30.22,13,1,14,0.01
2014-2-8,23,13,-5,7,0,-11,77,58,36,30.36,30.19,9,1,9,0.00
2014-2-9,26,18,-1,18,10,-6,84,70,48,30.22,29.96,9,1,9,0.00
2014-2-10,22,18,8,17,8,2,82,66,49,30.25,29.95,15,2,20,0.00
2014-2-11,18,13,0,9,3,-7,83,65,49,30.50,30.25,13,2,15,0.00
2014-2-12,25,2,-18,-4,-14,-24,78,53,19,30.62,30.43,10,1,11,0.00
2014-2-13,23,22,22,18,17,15,82,80,76,30.31,30.26,2,0,2,0.00
2014-2-17,22,7,-11,-1,-7,-16,79,54,30,30.41,30.20,14,3,14,0.00
2014-2-18,28,19,-9,24,12,-15,88,73,33,30.38,30.01,16,2,16,0.00
2014-2-19,38,25,7,35,21,3,91,83,64,30.11,29.73,20,2,20,0.00
2014-2-20,47,37,28,31,27,21,90,70,37,30.21,29.98,14,2,17,0.39
2014-2-21,42,36,31,39,33,28,91,90,87,30.07,29.67,11,1,11,0.66
2014-2-22,50,42,32,34,21,14,91,45,25,29.95,29.81,21,3,21,0.00
2014-2-23,47,41,32,27,23,14,78,49,32,29.98,29.80,20,2,20,0.00
2014-2-24,35,25,19,16,11,5,74,55,41,30.00,29.81,30,3,34,0.00
2014-2-25,25,18,14,10,6,3,69,58,46,30.03,29.92,18,2,18,0.00
2014-2-26,23,13,3,10,-2,-13,82,54,23,29.96,29.85,17,2,20,0.00
2014-2-27,24,12,-2,12,-1,-8,78,57,38,30.01,29.62,22,2,23,0.00
2014-2-28,16,6,-7,0,-10,-16,76,51,23,30.48,30.01,19,1,19,0.00
2014-3-1,32,17,-6,14,1,-12,78,53,30,30.48,30.10,15,2,15,0.00
2014-3-2,33,27,16,22,13,1,78,57,47,30.11,30.02,16,2,18,0.00
2014-3-3,17,12,1,2,-3,-8,67,51,35,30.36,30.08,16,2,16,0.00
2014-3-4,26,10,-8,9,-2,-14,79,58,29,30.44,30.29,7,1,8,0.00
2014-3-5,27,18,3,14,8,-4,76,65,47,30.56,30.27,12,1,12,0.00
2014-3-6,31,9,-9,4,-6,-17,80,57,12,30.69,30.53,5,1,7,0.00
2014-3-7,42,20,-6,21,7,-11,80,62,20,30.53,29.99,10,1,10,0.00
2014-3-8,47,32,15,29,22,11,87,68,43,29.99,29.79,16,2,19,0.00
2014-3-9,34,29,20,22,13,7,74,51,34,30.00,29.89,20,2,21,0.00
2014-3-10,40,34,26,29,22,13,80,64,54,29.90,29.56,12,1,12,0.00
2014-3-11,52,44,36,34,30,27,76,57,39,29.71,29.51,14,2,14,0.00
2014-3-12,41,35,18,38,31,12,91,86,76,29.72,29.10,9,2,13,0.27
2014-3-13,18,13,10,13,5,-1,82,70,54,30.05,29.22,18,5,29,0.00
2014-3-14,39,25,7,21,11,1,82,57,41,30.18,29.85,18,3,18,0.02
2014-3-15,50,41,29,32,26,16,73,55,44,30.00,29.68,21,4,24,0.01
2014-3-16,29,22,15,16,7,1,72,52,36,30.25,29.99,24,3,24,0.00
2014-3-17,28,18,10,8,0,-8,80,47,21,30.23,30.09,12,2,12,0.00
2014-3-18,42,23,6,20,5,-16,83,56,8,30.33,30.19,6,1,7,0.00
2014-3-19,40,30,16,33,17,0,88,63,22,30.35,29.92,17,2,20,0.35
2014-3-20,44,37,33,36,31,24,92,78,59,29.92,29.68,18,2,18,0.22
2014-3-21,36,32,22,26,22,17,80,66,57,30.07,29.80,32,3,32,0.01
2014-3-22,48,33,19,35,24,15,87,68,51,30.08,29.71,34,3,34,0.02
2014-3-23,34,29,18,25,14,2,70,54,40,30.16,29.97,24,3,26,0.00
2014-3-24,28,20,13,8,2,-2,62,46,31,30.21,30.10,20,3,22,0.00
2014-3-25,35,23,9,19,10,5,84,61,33,30.17,29.94,13,1,13,0.00
2014-3-26,32,26,19,19,9,-5,83,53,28,30.15,29.81,32,4,35,0.00
2014-3-27,38,28,14,13,6,1,70,42,25,30.39,30.15,14,2,17,0.00
2014-3-28,49,40,33,46,34,11,89,80,34,30.21,29.92,15,3,15,1.03
2014-3-29,52,44,38,41,37,34,88,79,60,30.25,29.89,18,2,24,0.18
2014-3-30,42,40,34,39,36,30,90,86,82,29.90,29.65,19,5,19,0.62
2014-3-31,40,33,30,33,27,26,87,81,72,30.12,29.76,22,6,25,0.01
2014-4-1,53,37,23,37,29,20,89,74,47,30.17,30.00,8,1,8,0.00
2014-4-2,58,44,29,38,32,23,90,63,35,30.10,30.02,12,2,12,0.00
2014-4-3,50,39,27,31,26,22,85,60,38,30.15,30.07,15,2,16,0.00
2014-4-4,50,41,32,33,29,25,84,64,40,30.12,29.81,21,3,24,0.23
2014-4-5,46,38,34,38,30,22,91,75,52,30.02,29.72,22,2,22,0.11
2014-4-6,52,38,27,29,23,18,85,58,29,30.22,30.01,23,2,24,0.00
2014-4-7,56,42,23,41,24,15,89,58,23,30.22,29.76,18,2,19,0.03
2014-4-8,62,50,41,54,42,33,90,76,56,29.76,29.29,22,3,22,0.08
2014-4-9,52,43,32,36,26,8,88,55,22,29.99,29.58,25,3,27,0.02
2014-4-10,63,45,22,32,24,15,84,47,23,30.14,29.92,21,4,23,0.00
2014-4-11,66,54,43,47,39,31,91,60,41,30.04,29.86,20,2,20,0.07
2014-4-12,66,48,30,45,34,27,92,66,25,30.20,30.01,15,1,16,0.01
2014-4-13,75,58,34,54,44,30,88,60,39,30.21,29.90,20,3,22,0.04
2014-4-14,75,68,60,57,53,50,76,60,45,29.92,29.74,22,5,22,0.00
2014-4-15,64,54,29,59,48,25,86,80,69,29.88,29.45,20,4,21,0.67
2014-4-16,39,30,23,25,19,13,86,65,43,30.62,29.88,20,4,22,0.20
2014-4-17,50,35,19,24,19,14,88,57,27,30.79,30.62,11,2,11,0.00
2014-4-18,50,37,20,28,22,17,88,60,33,30.63,30.24,10,1,10,0.00
2014-4-19,58,43,28,36,30,24,87,62,34,30.42,30.20,21,3,21,0.00
2014-4-20,30,28,25,25,23,21,86,84,80,30.46,30.41,2,0,2,0.00
2014-4-22,73,56,36,52,40,29,90,59,26,29.76,29.48,12,1,15,0.13
2014-4-23,54,46,42,48,37,26,84,73,52,29.76,29.48,21,3,22,0.01
2014-4-24,55,45,36,26,19,11,56,36,20,30.01,29.76,28,5,28,0.00
2014-4-25,65,50,26,31,20,7,79,38,12,30.01,29.76,15,2,16,0.01
2014-4-26,55,46,40,45,40,30,89,81,48,29.85,29.71,12,1,15,0.62
2014-4-27,51,44,35,40,36,30,85,74,62,30.14,29.84,18,3,18,0.00
2014-4-28,61,49,36,41,36,31,89,63,41,30.17,30.03,14,3,15,0.01
2014-4-29,51,46,40,40,36,33,78,69,54,30.45,30.17,19,2,19,0.05
2014-4-30,47,43,38,43,38,33,88,82,69,30.47,30.07,17,2,19,0.73
2014-5-1,73,56,45,58,48,36,91,77,48,30.06,29.64,17,2,18,0.20
2014-5-2,60,51,37,47,39,33,88,64,44,29.83,29.69,12,1,12,0.00
2014-5-3,65,52,41,46,41,35,89,69,37,29.86,29.69,11,1,12,0.00
2014-5-4,51,47,42,47,40,36,91,76,59,29.74,29.61,27,2,27,0.38
2014-5-5,60,49,39,45,40,35,87,72,48,29.91,29.74,17,2,19,0.01
2014-5-6,60,47,32,42,33,23,90,63,27,30.10,29.89,20,2,20,0.00
2014-5-7,63,45,27,41,30,18,90,62,21,30.25,30.09,11,1,12,0.00
2014-5-8,74,55,33,51,41,30,90,65,30,30.20,30.03,8,1,8,0.00
2014-5-9,62,58,52,56,53,49,91,84,74,30.16,29.99,17,3,17,0.03
2014-5-10,80,68,61,64,57,34,89,70,32,29.99,29.73,15,2,15,0.07
2014-5-11,73,63,51,43,38,29,68,41,20,30.05,29.83,19,2,21,0.00
2014-5-12,83,64,44,52,44,30,87,55,18,30.10,29.98,12,1,15,0.00
2014-5-13,68,60,52,52,46,41,89,62,44,30.24,30.05,10,2,11,0.00
2014-5-14,78,63,50,57,48,41,80,60,40,30.26,30.15,12,3,13,0.01
2014-5-15,71,67,63,64,61,57,84,80,73,30.21,30.07,15,3,15,0.00
2014-5-16,70,67,65,63,61,59,87,81,76,30.07,29.79,17,3,22,0.09
2014-5-17,66,53,40,62,43,36,90,71,41,30.14,29.73,13,1,13,0.69
2014-5-18,65,50,32,43,35,30,91,62,32,30.20,30.10,14,2,17,0.00
2014-5-19,66,50,33,41,35,27,90,61,24,30.19,30.04,20,2,20,0.00
2014-5-20,72,53,35,47,39,31,91,64,24,30.14,29.97,22,2,22,0.00
2014-5-21,77,58,36,56,42,32,92,62,21,30.02,29.86,8,0,8,0.00
2014-5-22,62,56,49,57,52,46,92,86,74,29.88,29.79,10,1,13,0.14
2014-5-23,64,58,53,56,53,51,92,83,70,29.94,29.84,7,1,8,0.01
2014-5-24,67,58,49,58,51,46,91,80,59,30.08,29.93,10,1,10,0.09
2014-5-25,76,62,44,58,48,40,92,66,28,30.09,29.99,12,1,12,0.02
2014-5-26,80,63,46,63,53,43,91,71,33,30.01,29.83,14,1,14,0.07
2014-5-27,84,66,50,66,56,47,91,74,43,29.88,29.70,18,1,18,0.00
2014-5-28,57,52,49,52,47,44,90,83,74,30.21,29.83,12,2,13,0.22
2014-5-29,68,55,35,50,43,32,92,67,37,30.24,30.09,10,1,10,0.00
2014-5-30,72,57,46,54,48,42,91,73,41,30.11,29.99,13,1,14,0.00
2014-5-31,67,56,45,53,48,42,92,76,53,30.31,30.10,15,2,15,0.01
2014-6-1,77,57,38,55,44,34,92,68,25,30.39,30.20,7,1,7,0.00
2014-6-2,82,63,44,62,50,40,90,66,30,30.23,29.98,7,1,8,0.00
2014-6-3,86,68,51,70,59,48,92,77,43,30.00,29.78,12,1,12,1.59
2014-6-4,75,66,56,63,57,44,92,76,35,29.83,29.73,9,1,11,0.08
2014-6-5,71,61,56,59,54,47,92,78,49,29.77,29.64,13,1,13,0.04
2014-6-6,72,61,50,57,52,47,90,74,53,29.94,29.75,15,1,15,0.00
2014-6-7,78,62,44,60,52,42,92,73,40,30.01,29.90,12,1,12,0.00
2014-6-8,83,65,46,65,54,44,92,71,32,29.97,29.84,9,0,9,0.00
2014-6-9,73,63,58,63,58,54,92,85,67,29.98,29.90,7,0,7,0.04
2014-6-10,76,68,61,67,61,58,91,81,65,30.04,29.93,10,1,11,0.00
2014-6-11,66,62,59,59,55,50,90,80,65,30.14,30.04,10,1,10,0.13
2014-6-12,68,61,57,62,57,51,92,86,69,30.11,29.98,12,1,14,0.08
2014-6-13,70,65,63,65,62,60,92,90,84,29.97,29.75,8,1,8,0.18
2014-6-14,68,62,56,61,54,48,92,77,60,29.99,29.77,15,1,15,0.12
2014-6-15,73,61,52,59,53,49,91,75,53,30.11,29.98,17,2,17,0.00
2014-6-16,82,64,45,62,51,40,92,69,29,30.17,30.01,7,0,7,0.00
2014-6-17,85,72,56,70,62,54,92,74,38,30.05,29.77,10,1,11,0.13
2014-6-18,79,78,78,66,66,66,68,66,65,29.77,29.71,15,5,17,0.00
2014-6-19,78,67,51,64,57,48,92,73,40,30.02,29.94,6,2,16,0.00
2014-6-20,72,60,44,52,47,41,92,66,39,30.02,29.91,14,2,14,0.00
2014-6-21,72,57,42,55,47,39,92,72,41,30.01,29.90,14,1,15,0.00
2014-6-22,77,61,44,60,50,42,92,71,35,30.03,29.95,10,1,10,0.00
2014-6-23,81,66,47,63,54,44,92,67,34,30.12,30.03,9,1,10,0.00
2014-6-24,76,69,62,63,58,49,83,67,44,30.11,29.95,17,2,17,0.00
2014-6-25,82,72,65,73,65,57,92,77,65,29.95,29.80,9,1,9,1.96
2014-6-26,77,69,58,67,63,55,92,83,61,30.00,29.79,15,2,15,0.09
2014-6-27,81,66,52,64,55,49,92,72,37,30.20,30.00,12,1,12,0.01
2014-6-28,83,67,49,66,56,47,92,73,32,30.28,30.20,7,0,7,0.00
2014-6-29,84,69,51,69,58,49,92,72,36,30.25,30.05,10,0,10,0.00
2014-6-30,83,70,57,69,62,54,92,77,57,30.07,29.89,10,1,12,0.00
2014-7-1,88,77,63,74,68,60,92,75,54,29.92,29.72,13,2,17,0.00
2014-7-2,89,75,66,76,69,64,92,83,60,29.91,29.76,11,0,13,0.44
2014-7-3,87,73,63,75,67,61,92,83,57,29.95,29.82,14,0,14,0.35
2014-7-4,68,65,60,65,62,53,92,89,74,30.02,29.90,13,1,13,0.60
2014-7-5,77,67,58,57,50,44,84,56,38,30.08,29.94,18,2,19,0.00
2014-7-6,80,71,63,61,54,44,85,56,43,30.05,29.85,11,1,13,0.00
2014-7-7,84,72,61,72,64,57,92,77,58,29.86,29.65,14,2,16,0.03
2014-7-8,84,75,64,72,67,62,92,79,61,29.76,29.58,18,2,18,0.30
2014-7-9,82,71,61,67,63,58,92,77,52,29.95,29.65,13,2,15,0.02
2014-7-10,77,65,53,60,55,46,92,74,39,30.17,29.95,10,1,11,0.00
2014-7-11,78,63,48,61,53,46,92,73,40,30.24,30.17,11,0,11,0.00
2014-7-12,84,67,48,67,58,46,92,74,44,30.24,30.08,9,1,9,0.00
2014-7-13,76,71,66,71,66,59,91,82,71,30.08,29.82,14,2,15,0.01
2014-7-14,84,74,66,71,67,63,92,80,52,29.89,29.80,9,0,9,0.00
2014-7-15,80,73,68,72,68,65,92,86,69,29.82,29.71,8,0,9,0.02
2014-7-16,77,68,57,67,61,54,92,82,49,29.89,29.71,8,0,8,0.00
2014-7-17,76,63,51,61,55,48,92,76,51,30.12,29.89,13,1,13,0.00
2014-7-18,76,62,47,62,52,45,92,74,36,30.25,30.11,9,0,9,0.00
2014-7-19,76,63,50,65,56,48,92,80,56,30.28,30.20,6,0,6,0.00
2014-7-20,79,64,54,63,57,52,92,78,42,30.21,30.10,7,0,7,0.01
2014-7-21,81,66,51,68,59,49,92,79,50,30.21,30.11,7,0,7,0.00
2014-7-22,85,72,56,72,64,54,92,78,51,30.16,29.96,9,1,9,0.00
2014-7-23,87,75,66,74,68,63,92,81,59,29.97,29.70,15,1,16,0.01
2014-7-24,74,67,55,67,58,50,92,76,46,29.93,29.77,13,2,13,0.00
2014-7-25,77,62,48,64,55,46,92,78,46,30.03,29.93,9,0,10,0.00
2014-7-26,79,65,53,64,57,50,92,78,40,29.98,29.86,12,0,12,0.00
2014-7-27,80,67,59,70,63,56,92,88,67,29.88,29.64,11,0,11,0.01
2014-7-28,79,67,61,70,63,58,92,88,63,29.67,29.43,13,1,16,0.00
2014-7-29,72,62,52,58,54,49,92,77,52,29.96,29.64,11,1,11,0.00
2014-7-30,74,62,52,60,54,47,92,78,39,30.04,29.96,7,0,7,0.00
2014-7-31,76,62,50,63,56,48,92,83,56,30.15,30.03,12,1,12,0.00
2014-8-1,81,67,52,70,60,50,92,80,52,30.20,30.14,10,0,10,0.01
2014-8-2,78,67,57,66,60,54,92,79,51,30.20,30.08,10,0,10,0.00
2014-8-3,79,64,52,67,58,50,92,83,55,30.14,30.01,5,0,6,0.00
2014-8-4,80,67,57,69,61,54,92,84,61,30.06,30.00,10,0,10,0.01
2014-8-5,84,68,54,69,61,52,92,81,48,30.05,29.90,7,0,7,0.01
2014-8-6,77,66,54,65,59,51,92,79,46,29.93,29.82,11,1,12,0.00
2014-8-7,73,59,49,62,54,47,92,83,56,30.01,29.90,13,1,13,0.02
2014-8-8,76,61,46,62,54,44,92,79,50,30.09,30.01,11,1,11,0.00
2014-8-9,80,63,47,63,55,45,92,77,41,30.15,30.07,10,1,10,0.00
2014-8-10,82,64,48,65,55,46,92,76,40,30.17,30.09,6,0,6,0.00
2014-8-11,84,66,50,70,58,48,92,77,43,30.16,30.06,7,0,8,0.00
2014-8-12,74,66,54,63,59,51,92,79,62,30.10,29.91,11,1,11,0.00
2014-8-13,70,67,63,63,62,57,91,83,76,29.91,29.65,13,2,14,0.01
2014-8-14,69,61,54,57,52,47,90,74,49,29.89,29.73,18,1,18,0.00
2014-8-15,63,57,48,55,51,45,92,83,67,29.95,29.86,7,0,10,0.01
2014-8-16,73,61,49,60,53,45,92,77,48,29.98,29.89,11,0,11,0.01
2014-8-17,74,63,52,62,56,49,92,79,55,29.90,29.81,15,1,15,0.00
2014-8-18,72,60,48,57,52,45,92,77,47,29.91,29.83,11,1,12,0.00
2014-8-19,76,58,42,61,50,39,92,77,47,29.96,29.89,7,0,7,0.00
2014-8-20,82,65,48,69,58,46,92,81,56,30.01,29.94,6,0,6,0.00
2014-8-21,75,67,64,66,63,61,92,88,73,30.04,29.99,6,0,6,0.05
2014-8-22,67,64,61,62,60,58,92,87,77,30.09,30.01,6,0,6,0.00
2014-8-23,71,63,52,62,57,49,92,82,62,30.15,30.07,9,1,9,0.00
2014-8-24,78,63,50,65,57,48,92,82,53,30.18,30.10,10,1,10,0.00
2014-8-25,83,65,49,67,57,46,92,79,45,30.21,30.11,7,1,8,0.00
2014-8-26,83,66,50,67,58,48,92,78,44,30.18,30.03,8,0,9,0.01
2014-8-27,82,70,56,73,63,54,92,80,61,30.03,29.87,7,0,7,0.00
2014-8-28,74,64,50,60,55,46,92,74,51,30.05,29.85,15,2,17,0.00
2014-8-29,76,59,43,61,51,40,92,79,49,30.24,30.05,6,0,6,0.00
2014-8-30,76,62,47,63,55,45,92,79,57,30.28,30.10,12,1,14,0.00
2014-8-31,79,72,65,71,67,61,91,83,73,30.10,29.92,8,1,9,0.00
2014-9-1,84,73,64,71,66,61,92,81,54,29.99,29.89,6,0,7,0.00
2014-9-2,86,74,61,75,67,59,92,82,53,29.92,29.71,7,0,13,0.02
2014-9-3,78,68,53,66,59,50,91,75,47,30.11,29.75,11,2,22,0.00
2014-9-4,82,64,48,67,57,46,92,79,49,30.20,30.09,7,1,11,0.00
2014-9-5,85,70,55,73,64,53,92,82,62,30.16,29.95,11,1,13,0.00
2014-9-6,85,73,62,73,66,58,92,82,63,29.95,29.76,12,1,16,0.03
2014-9-7,73,63,49,60,54,45,92,75,40,30.23,29.92,10,1,10,0.00
2014-9-8,73,58,43,57,49,40,92,76,45,30.37,30.23,8,0,10,0.00
2014-9-9,71,56,42,57,50,40,92,80,55,30.35,30.19,7,1,9,0.00
2014-9-10,75,58,43,61,52,41,92,80,56,30.19,30.00,5,0,7,0.01
2014-9-11,73,65,58,67,60,51,88,81,73,30.00,29.76,15,3,19,0.01
2014-9-12,63,55,41,52,47,39,91,76,58,30.25,29.97,11,2,12,0.00
2014-9-13,58,50,38,54,47,36,92,87,73,30.27,30.11,9,1,16,0.01
2014-9-14,60,49,36,48,42,34,91,78,57,30.29,30.18,10,1,11,0.00
2014-9-15,64,49,36,50,42,33,92,78,40,30.27,30.10,9,1,9,0.00